Change the Weather History Date:

Sunday, March 10, 2013

  Actual Average Record
Temperature  
Mean Temperature 58 °F 50 °F  
Max Temperature 71 °F 62 °F 81 °F (1974)
Min Temperature 45 °F 39 °F 17 °F (1932)
Degree Days  
Heating Degree Days 7 15  
Month to date heating degree days 216 158  
Since 1 July heating degree days 2532 2780  
Cooling Degree Days 0 0  
Month to date cooling degree days 0 0  
Year to date cooling degree days 2 0  
Growing Degree Days 8 (Base 50)    
Moisture  
Dew Point 35 °F    
Average Humidity 50    
Maximum Humidity 76    
Minimum Humidity 23    
Precipitation  
Precipitation 0.00 in 0.15 in 3.29 in (1952)
Month to date precipitation 0.43 1.62  
Year to date precipitation 14.11 11.37  
Snow  
Snow 0.00 in 0.10 in - ()
Month to date snowfall T 0.5  
Since 1 July snowfall 0.3 3.1  
Snow Depth 0.00 in    
Sea Level Pressure  
Sea Level Pressure 30.08 in    
Wind  
Wind Speed 8 mph (SSE)    
Max Wind Speed 22 mph    
Max Gust Speed 30 mph    
Visibility 10 miles    
Events      
T = Trace of Precipitation, MM = Missing Value Source: NWS Daily Summary

Daily Weather History Graph

Daily Weather History Graph

Search for Another Location

Airport or City:

Trip Planner

Search our weather history database for the weather conditions in past years. The results will help you decide how hot, cold, wet, or windy it might be!

Date:

Astronomy

Mar. 10, 2013 Rise Set
Actual Time 7:57 AM EDT 7:44 PM EDT
Civil Twilight 7:32 AM EDT 8:09 PM EDT
Nautical Twilight 7:03 AM EDT 8:39 PM EDT
Astronomical Twilight 6:34 AM EDT 9:08 PM EDT
Moon 6:56 AM EDT (3/10) 6:51 PM EDT (3/10)
Length of Visible Light 12h 37m
Length of Day
11h 46m
Waning Crescent, 2% of the Moon is Illuminated
Mar 10
Waning Crescent
Mar 11
New
Mar 19
First Quarter
Mar 27
Full
Apr 3
Last Quarter

Hourly Weather History & Observations

Time (EDT) Temp. Dew Point Humidity Pressure Visibility Wind Dir Wind Speed Gust Speed Precip Events Conditions
12:53 AM 46.9 °F 39.0 °F 74% 30.14 in 10.0 mi Calm Calm - N/A   Clear
1:53 AM 46.0 °F 37.0 °F 71% 30.14 in 10.0 mi Calm Calm - N/A   Clear
3:53 AM 46.9 °F 39.0 °F 74% 30.14 in 10.0 mi Calm Calm - N/A   Clear
4:53 AM 48.2 °F 39.2 °F 71% 30.13 in 10.0 mi Calm Calm - N/A   Scattered Clouds
5:53 AM 46.9 °F 39.9 °F 77% 30.13 in 10.0 mi Calm Calm - N/A   Mostly Cloudy
6:53 AM 48.0 °F 39.9 °F 74% 30.14 in 10.0 mi Calm Calm - N/A   Mostly Cloudy
7:53 AM 46.4 °F 39.2 °F 76% 30.16 in 10.0 mi Calm Calm - N/A   Mostly Cloudy
8:53 AM 53.1 °F 32.0 °F 45% 30.16 in 10.0 mi South 3.5 mph - N/A   Scattered Clouds
9:53 AM 57.0 °F 32.0 °F 39% 30.16 in 10.0 mi South 5.8 mph - N/A   Scattered Clouds
10:53 AM 61.0 °F 32.0 °F 34% 30.14 in 10.0 mi SSE 11.5 mph 21.9 mph N/A   Mostly Cloudy
11:53 AM 64.0 °F 33.1 °F 31% 30.13 in 10.0 mi SSE 16.1 mph 26.5 mph N/A   Mostly Cloudy
12:53 PM 64.0 °F 32.0 °F 30% 30.11 in 10.0 mi SSE 16.1 mph 26.5 mph N/A   Mostly Cloudy
1:53 PM 66.9 °F 33.1 °F 28% 30.09 in 10.0 mi SSE 11.5 mph 23.0 mph N/A   Mostly Cloudy
2:53 PM 68.0 °F 32.0 °F 26% 30.06 in 10.0 mi SSE 15.0 mph 25.3 mph N/A   Mostly Cloudy
3:53 PM 69.1 °F 33.1 °F 26% 30.04 in 10.0 mi SSE 11.5 mph - N/A   Mostly Cloudy
4:53 PM 70.0 °F 30.0 °F 23% 30.03 in 10.0 mi South 10.4 mph 20.7 mph N/A   Mostly Cloudy
5:53 PM 69.1 °F 30.0 °F 23% 30.01 in 10.0 mi SSE 10.4 mph 24.2 mph N/A   Mostly Cloudy
6:53 PM 69.1 °F 30.9 °F 24% 29.98 in 10.0 mi SSE 13.8 mph 19.6 mph N/A   Mostly Cloudy
7:53 PM 66.0 °F 32.0 °F 28% 29.98 in 10.0 mi SE 8.1 mph 17.3 mph N/A   Mostly Cloudy
8:53 PM 64.9 °F 33.1 °F 31% 29.98 in 10.0 mi SE 9.2 mph - N/A   Scattered Clouds
9:53 PM 64.0 °F 36.0 °F 35% 29.99 in 10.0 mi SSE 15.0 mph 21.9 mph N/A   Partly Cloudy
10:53 PM 64.0 °F 39.0 °F 40% 29.98 in 10.0 mi SSE 11.5 mph 23.0 mph N/A   Scattered Clouds
11:53 PM 63.0 °F 41.0 °F 45% 30.00 in 10.0 mi SSE 16.1 mph 21.9 mph N/A   Scattered Clouds
12:53 AM 62.1 °F 42.1 °F 48% 29.98 in 10.0 mi SSE 11.5 mph 21.9 mph N/A   Overcast